Погода Торгай

Погода Торгай : погода сейчас, прогноз погоды и архив. Всё, что Вы хотите узнать о погоде Торгай!

Хотите узнать прогноз погоды Торгай? Тогда Вам сюда: Погода Торгай

Поиск расширенной информации на нашем сайте:

Полезная информация:

Другие новости

Новости СМИ2

Главная страница сайта

Новости сайта

03.07.2017

Напоминаем, что на нашем специализированном сайте Метеоцентр.Азия вы можете получить высокодетализированные автоматические прогнозы погоды по пунктам России, СНГ и мира в авиационном формате (включающие направление и скорость ветра, видимость, явления погоды, количество и форму облачности, нижнюю и верхнюю границу облачности).

Рекомендуем:

Погода Торгай - сегодня

Время (UTC), дата Ветер
(°,м/с) 
Видим.   Явления Облачность Т
(°С)
Тd
(°С)
f(%) Тe
(°С)
Pmin
(гПа)
dP
(гПа)
Po
(мм)
O2
(г/м3)
Тmin Tmax R s Состояние
почвы
09 15.09.19 020 (С) 10 км    4/4 1000 м 
[Cu med, cong]
+24.8 +6.2 30 +25  1017.5  -2  751  277           
12 15.09.19 070 (В) 10 км    3/3 1000 м 
[Cu med, cong]
+25.4 +6.1 29 +25  1016.7  -0.7  751  276           
15 15.09.19 070 (В) н/о    3/0 средняя 
[Ac lent]
+22.2 +5.1 33 +22  1016.7  -0.2  751  279    +25.7       
18 15.09.19 070 (В) н/о    ясно 
+15.5 +4.3 47 +16  1016.9  -0.1  751  286    +25.7       
21 15.09.19 070 (В) н/о    ясно 
+13.2 +3.6 52 +14  1016.9  -0.2  751  288           
00 16.09.19 070 (В) н/о    ясно 
+12.4 +3.4 54 +13  1016.1  -0.9  750  288           
03 16.09.19 200 (Ю) 10 км    6/6 1000 м 
[Sc]
+13.5 +3.6 51 +14  1015.1  -0.9  749  287           
06 16.09.19 200 (Ю) 10 км    8/0 
[Sc]
+19.4 +7 44 +20  1013.9  -0.8  749  280  +12.4         
09 16.09.19 230 (ЮЗ) 10 км    4/4 1000 м 
[Cu hum]
+26.2 +10.3 37 +28  1012  -1.5  747  273           
12 16.09.19 230 (ЮЗ) 10 км    6/6 1000 м 
[Cu med, cong]
+25.6 +10.6 39 +28  1011.5  -0.5  747  273           
15 16.09.19 250 (З) н/о    9/0 средняя 
[Ac lent]
+20.1 +7.4 44 +20  1022.1  0.3  747  279    +26.5       
18 16.09.19 250 (З) н/о    9/0 средняя 
[Ac lent]
+16 +5.3 49 +17  1012.9  0.5  748  284    +26.5       
21 16.09.19 250 (З) н/о    8/0 средняя 
[Ac lent]
+13.4 +4.3 54 +14  1013.7  0.7  748  287           
00 17.09.19 250 (З) н/о    6/0 средняя 
[Ac lent]
+11.2 +3.4 59 +11  1014.2  0.3  748  289           
03 17.09.19 200 (Ю) 10 км    4/0 средняя 
[Ac lent]
+13 +4 54 +13  1015.1  0.9  749  288           
06 17.09.19 200 (Ю) 10 км    6/0 верхняя 
[Ci fib]
+21.9 +9.7 46 +23  1015.2  0.7  750  278  +11.2         
09 17.09.19 200 (Ю) 10 км    6/0 верхняя 
[Ci fib]
+24.2 +10.3 41 +26  1013.7  -1.4  749  275           
12 17.09.19 230 (ЮЗ) 10 км    6/0 верхняя 
[Ci fib]
+24.6 +10.2 40 +26  1012.4  -1.1  748  275           
15 17.09.19 230 (ЮЗ) н/о    3/0 средняя 
[Ac lent]
+20.3 +8 45 +20  1012.2  -0.5  747  279    +24.9       
18 17.09.19 230 (ЮЗ) н/о    ясно 
+18.1 +7 48 +19  1012.2  -0.2  747  281    +24.9       
21 17.09.19 230 (ЮЗ) н/о    3/0 верхняя 
[Ci fib]
+14.5 +5 53 +15  1041.6  -0.8  747  285           
00 18.09.19 230 (ЮЗ) н/о    3/0 верхняя 
[Ci fib]
+12 +4.6 60 +12  1011.2  -0.5  746  287           
03 18.09.19 200 (Ю) 10 км    9/0 средняя 
[Ac lent]
+15.5 +5.8 52 +16  1011.8  0.8  747  284           
06 18.09.19 200 (Ю) 10 км    10/10 1000 м 
[Sc]
+19.4 +7.7 47 +20  1011.7  0.2  747  280  +12         
09 18.09.19 200 (Ю) 10 км    10/10 1000 м 
[Sc]
+20.3 +8 45 +20  1010.8  -0.9  746  279           
Время (UTC), дата Ветер
(°,м/с) 
Видим.   Явления Облачность Т
(°С)
Тd
(°С)
f(%) Тe
(°С)
Pmin
(гПа)
dP
(гПа)
Po
(мм)
O2
(г/м3)
Тmin Tmax R s Состояние
почвы

Для получения пояснительной информации подведите курсор к названию столбца.

ПОГОДА Торгай - архив

Всё, что Вы хотите узнать о погоде Торгай - удобно и подробно!

Выберите нужную дату (начиная с 1 января 2018* года) и нажмите кнопку "Найти".
Будут отображены архивные сводки погоды по пункту Торгай, начиная с указанной даты.


Отображать данные в формате CSV (для использования в таблицах Excel)


Внимание! Наш архив погоды предназначен исключительно для личного некоммерческого использования в познавательных целях. Если Вам необходимы официальные справки о состоянии погоды (для производственных, юридических, коммерческих и т.п. целей), обращайтесь в органы Росгидромета.

*Примечание: данная дата относится к архиву по метеостанциям СССР (Россия, СНГ, Балтия).
Архив по метеостанциям Зарубежной Европы и Азии (кроме Китая) хранится 10 дней, по другим регионам земного шара (Китай, Африка, Америка, Австралия, Океания) - 1 день.

Торгай - район местоположения метеостанции


Название, широта, долгота, высота метеостанции:
Торгай 49.7°ш. 63.5°д. 123 м над ур. моря [Казахстан]

Дополнительная информация

В oтличие oт бoльшинства пoгoдных сайтoв мы публикуем пoдрoбную метеoинфoрмацию в детальнoм прoфессиoнальнoм фoрмате.

Характеристики температуры и влажнoсти вoздуха измеряются на высoте 2 м в тени вдали oт зданий и деревьев.
Скoрoсть ветра измеряется на высoте 10 м (на урoвне рoста челoвека скoрoсть ветра ниже в 1.5-2 раза). Если метеoстанция нахoдится в гoрoде или в лесу, тo скoрoсть ветра занижена на 2-4 м/с пo сравнению с oткрытым местoм. Скoрoсть ветра над акватoриями крупных рек и oзёр, а также на вершинах хoлмoв на 2-5 м/с выше, чем в oбычных услoвиях.
Атмoсфернoе давление в разных тoчках местнoсти мoжет значительнo oтличаться oт давления на метеoстанции, в зависимoсти oт услoвий рельефа (при пoдъёме на 10 м давление пoнижается примернo на 1 мм рт.ст.).